Hawthorne, CA

12:52 AM PDT on May 23, 2017 (GMT -0700)
Northrop-Hawthorne Municipal

Weather History for KHHR - February, 2013

Change the Weather History Date:

Tuesday, February 26, 2013

  Actual Average Record
Temperature  
Mean Temperature 59 °F -  
Max Temperature 72 °F 65 °F 84 °F (2002)
Min Temperature 46 °F 50 °F 38 °F (1964)
Degree Days  
Heating Degree Days 6    
Growing Degree Days 9 (Base 50)    
Moisture  
Dew Point 40 °F    
Average Humidity 56    
Maximum Humidity 80    
Minimum Humidity 22    
Precipitation  
Precipitation 0.00 in - - ()
Sea Level Pressure  
Sea Level Pressure 30.04 in    
Wind  
Wind Speed 3 mph (West)    
Max Wind Speed 13 mph    
Max Gust Speed -    
Visibility 10 miles    
Events      
Averages and records for this station are not official NWS values.
T = Trace of Precipitation, MM = Missing Value Source: NWS Daily Summary

Daily Weather History Graph

Daily Weather History Graph

Search for Another Location

Airport or City:

Trip Planner

Search our weather history database for the weather conditions in past years. The results will help you decide how hot, cold, wet, or windy it might be!

Date:

Astronomy

Feb. 26, 2013 Rise Set
Actual Time 6:25 AM PST 5:47 PM PST
Civil Twilight 6:00 AM PST 6:12 PM PST
Nautical Twilight 5:31 AM PST 6:41 PM PST
Astronomical Twilight 5:02 AM PST 7:10 PM PST
Moon 7:02 PM PST (2/26) 6:35 AM PST (2/26)
Length of Visible Light 12h 12m
Length of Day
11h 22m
Full, 99% of the Moon is Illuminated
Feb 26
Full
Mar 4
Last Quarter
Mar 11
New
Mar 19
First Quarter
Mar 27
Full

Hourly Weather History & Observations

Time (PST) Temp. Dew Point Humidity Pressure Visibility Wind Dir Wind Speed Gust Speed Precip Events Conditions
12:53 AM 50.0 °F 44.1 °F 80% 30.08 in 10.0 mi ENE 3.5 mph - N/A   Clear
1:53 AM 48.9 °F 39.9 °F 71% 30.06 in 10.0 mi Calm Calm - N/A   Clear
2:53 AM 48.0 °F 37.0 °F 66% 30.04 in 10.0 mi Calm Calm - N/A   Clear
3:53 AM 46.0 °F 37.0 °F 71% 30.03 in 10.0 mi Calm Calm - N/A   Clear
4:53 AM 46.0 °F 36.0 °F 68% 30.03 in 10.0 mi Calm Calm - N/A   Clear
5:53 AM 46.9 °F 34.0 °F 61% 30.03 in 10.0 mi Calm Calm - N/A   Clear
6:53 AM 46.0 °F 34.0 °F 63% 30.04 in 10.0 mi Calm Calm - N/A   Clear
7:53 AM 48.9 °F 35.1 °F 59% 30.05 in 10.0 mi Calm Calm - N/A   Clear
8:53 AM 54.0 °F 37.0 °F 53% 30.06 in 10.0 mi East 4.6 mph - N/A   Clear
9:53 AM 57.0 °F 37.9 °F 49% 30.07 in 10.0 mi Calm Calm - N/A   Clear
10:53 AM 63.0 °F 28.0 °F 27% 30.06 in 10.0 mi Calm Calm - N/A   Clear
11:53 AM 66.9 °F 27.0 °F 22% 30.03 in 10.0 mi Variable 3.5 mph - N/A   Clear
12:53 PM 70.0 °F 30.0 °F 23% 30.00 in 10.0 mi Variable 3.5 mph - N/A   Clear
1:53 PM 72.0 °F 39.0 °F 30% 29.99 in 10.0 mi West 12.7 mph - N/A   Clear
2:53 PM 63.0 °F 46.0 °F 54% 30.01 in 10.0 mi WSW 12.7 mph - N/A   Clear
2:58 PM 62.6 °F 46.4 °F 55% 30.00 in 1.8 mi West 12.7 mph - N/A   Haze
3:12 PM 62.6 °F 48.2 °F 59% 30.00 in 10.0 mi West 11.5 mph - N/A   Clear
3:53 PM 62.1 °F 45.0 °F 53% 30.01 in 10.0 mi WNW 10.4 mph - N/A   Clear
4:53 PM 62.1 °F 43.0 °F 50% 30.01 in 10.0 mi WNW 6.9 mph - N/A   Clear
5:53 PM 60.1 °F 43.0 °F 53% 30.01 in 10.0 mi WNW 5.8 mph - N/A   Clear
6:53 PM 57.9 °F 46.0 °F 65% 30.03 in 10.0 mi Calm Calm - N/A   Clear
7:53 PM 57.9 °F 46.0 °F 65% 30.05 in 10.0 mi Calm Calm - N/A   Clear
8:53 PM 57.0 °F 46.0 °F 67% 30.07 in 10.0 mi Calm Calm - N/A   Clear
9:53 PM 55.9 °F 45.0 °F 67% 30.09 in 10.0 mi Calm Calm - N/A   Clear
10:53 PM 55.0 °F 44.1 °F 67% 30.11 in 10.0 mi Calm Calm - N/A   Clear
11:53 PM 54.0 °F 42.1 °F 64% 30.12 in 10.0 mi Calm Calm - N/A   Clear